Location: Acheville
(50.3840°N, 2.8827°E)
Time: 15:14:32
(UTC+00:00)

Cosmos 1190 Rocket - Pass Details

Date: 24 October 2021
Orbit: 756 x 780 km, 74.1° (Epoch: 27 November)

Event Time Altitude Azimuth Distance (km) Brightness Sun altitude
Rises 18:53:53 0° 337° (NNW) 3,227 7.7 -22.2°
Reaches altitude 10° 18:56:17 10° 340° (NNW) 2,299 6.8 -22.5°
Maximum altitude 19:01:28 67° 63° (ENE) 825 3.9 -23.3°
Enters shadow 19:02:00 63° 99° (E) 853 3.9 -23.4°
